[Date Prev][Date Next][Thread Prev][Thread Next] - [Date Index][Thread Index][Author Index]

ISS/STS-121 KEPS



ISS (ZARYA)             
1 25544U 98067A   06195.84344907  .00009247  00000-0  61321-4 0  2958
2 25544  51.6317  45.0122 0010878  76.9839 105.5799 15.76310919437524
STS 121                 
1 29251U 06028A   06195.62791052  .00009194  00000-0  61005-4 0  2518
2 29251  51.6322  46.1233 0010909  76.3310 322.2874 15.76306604  1566
----
Via the sarex mailing list at AMSAT.ORG courtesy of AMSAT-NA.
To unsubscribe, send "unsubscribe sarex" to Majordomo@amsat.org



AMSAT Top AMSAT Home